Location: LDNL
(36.4545°S, 141.6685°E)
Time: 01:03:07
(UTC+11:00)

Vanguard 1 - All Passes

Search period start: 06 February 2023 00:00
Search period end: 16 February 2023 00:00
Orbit: 650 x 3831 km, 34.2° (Epoch: 04 February)

Date Brightness Start Highest point End Pass type
(mag) Time Alt. Az. Time Alt. Az. Time Alt. Az.
06 Feb - 00:30:29 10° WNW 00:33:52 13° NW 00:36:40 10° NNW visible
06 Feb - 12:47:21 10° NNE 13:00:06 18° NE 13:12:12 10° E daylight
06 Feb - 15:03:10 10° NNW 15:24:37 46° NNE 15:40:48 10° E daylight
06 Feb - 17:27:45 10° WNW 17:49:50 73° NNE 18:02:50 10° E daylight
06 Feb - 19:56:10 10° W 20:13:53 81° N 20:23:04 10° E daylight
06 Feb - 22:24:00 10° W 22:35:18 46° NNW 22:41:40 10° NE visible
07 Feb - 13:04:27 10° N 13:20:42 25° NE 13:35:48 10° E daylight
07 Feb - 15:23:10 10° NW 15:45:32 54° NNE 16:01:52 10° E daylight
07 Feb - 17:48:57 10° WNW 18:10:53 79° N 18:23:30 10° E daylight
07 Feb - 20:17:39 10° W 20:34:43 77° NNW 20:43:33 10° ENE daylight
07 Feb - 22:45:26 10° W 22:55:30 35° NW 23:01:32 10° NNE visible
08 Feb - 13:22:46 10° NNW 13:41:19 32° NE 13:58:12 10° E daylight
08 Feb - 15:43:31 10° NW 16:06:30 62° NNE 16:22:47 10° E daylight
08 Feb - 18:10:18 10° WNW 18:31:57 82° N 18:44:09 10° E daylight
08 Feb - 20:39:06 10° W 20:55:27 70° NNW 21:03:58 10° ENE visible
08 Feb - 23:07:07 10° W 23:15:33 26° NW 23:21:04 10° N visible
09 Feb - 11:32:19 10° NE 11:38:15 12° NE 11:44:18 10° ENE daylight
09 Feb - 13:41:50 10° NNW 14:01:59 40° NE 14:19:57 10° E daylight
09 Feb - 16:04:10 10° WNW 16:27:33 69° NNE 16:43:37 10° E daylight
09 Feb - 18:31:46 10° W 18:53:01 83° N 19:04:48 10° E daylight
09 Feb - 21:00:32 10° W 21:16:03 61° NNW 21:24:16 10° NE visible
09 Feb - 23:29:19 10° W 23:35:28 18° NW 23:39:58 10° N visible
10 Feb - 11:46:13 10° NNE 11:58:39 18° NE 12:11:26 10° E daylight
10 Feb - 14:01:23 10° NNW 14:22:43 48° NE 14:41:20 10° E daylight
10 Feb - 16:25:05 10° WNW 16:48:40 75° NNE 17:04:24 10° E daylight
10 Feb - 18:53:17 10° W 19:14:03 82° N 19:25:24 10° ENE daylight
10 Feb - 21:22:00 10° W 21:36:29 50° NNW 21:44:24 10° NE visible
10 Feb - 23:53:29 10° WNW 23:55:16 11° NW 23:56:55 10° NW visible
11 Feb - 12:03:27 10° N 12:19:00 25° NE 12:35:09 10° E daylight
11 Feb - 14:21:21 10° NW 14:43:33 56° NNE 15:02:30 10° E daylight
11 Feb - 16:46:13 10° WNW 17:09:50 80° N 17:25:10 10° E daylight
11 Feb - 19:14:48 10° W 19:35:01 78° NNW 19:45:57 10° ENE daylight
11 Feb - 21:43:32 10° W 21:56:44 40° NW 22:04:18 10° NNE visible
12 Feb - 12:21:50 10° N 12:39:24 33° NE 12:57:40 10° E daylight
12 Feb - 14:41:39 10° NW 15:04:31 64° NNE 15:23:31 10° E daylight
12 Feb - 17:07:31 10° WNW 17:31:03 83° N 17:45:55 10° E daylight
12 Feb - 19:36:18 10° W 19:55:51 72° NNW 20:06:24 10° ENE daylight
12 Feb - 22:05:16 10° W 22:16:47 31° NW 22:23:53 10° NNE visible
13 Feb - 10:32:59 10° NE 10:37:07 11° NE 10:41:25 10° ENE daylight
13 Feb - 12:40:55 10° NNW 12:59:52 40° NE 13:19:32 10° E daylight
13 Feb - 15:02:14 10° WNW 15:25:35 71° NNE 15:44:28 10° E daylight
13 Feb - 17:28:55 10° W 17:52:15 84° N 18:06:39 10° E daylight
13 Feb - 19:57:48 10° W 20:16:33 64° NNW 20:26:43 10° NE daylight
13 Feb - 22:27:26 10° W 22:36:42 22° NW 22:42:58 10° N visible
14 Feb - 10:46:11 10° NNE 10:57:14 17° NE 11:09:33 10° E daylight
14 Feb - 13:00:28 10° NNW 13:20:28 49° NE 13:41:02 10° ESE daylight
14 Feb - 15:23:04 10° WNW 15:46:46 77° NNE 16:05:22 10° E daylight
14 Feb - 17:50:23 10° W 18:13:25 82° N 18:27:20 10° ENE daylight
14 Feb - 20:19:19 10° WSW 20:37:04 54° NNW 20:46:52 10° NE daylight
14 Feb - 22:50:30 10° W 22:56:29 15° NW 23:01:07 10° NNW visible
15 Feb - 11:03:24 10° N 11:17:22 24° NE 11:33:31 10° E daylight
15 Feb - 13:20:24 10° NW 13:41:13 57° NNE 14:02:19 10° ESE daylight
15 Feb - 15:44:06 10° WNW 16:08:02 81° N 16:26:14 10° E daylight
15 Feb - 18:11:52 10° W 18:34:31 79° NNW 18:47:56 10° ENE daylight
15 Feb - 20:40:55 10° WSW 20:57:22 44° NW 21:06:48 10° NNE visible
